User: anonymous   Login
Location: Waldport
(44.4270°N, 124.0680°W)
Time: 03:12:36
(UTC-08:00)
Language:

Cosmos 1023 Rocket - Orbit

View from above orbital plane
View from above orbital plane
View from above satellite
View from above satellite

Ground track
Ground track

The orbit data is extracted from the following two-line orbital elements,

1 10962U 78063B   15060.22135561  .00000299  00000-0  10115-3 0  9990
2 10962 074.0820 327.4695 0024130 086.6137 273.7779 14.40850727925037
Epoch (UTC): 01 March 2015 05:18:45
Eccentricity: 0.0024130
inclination: 74.0820°
perigee height: 738 km
apogee height: 773 km
right ascension of ascending node: 327.4695°
argument of perigee: 86.6137°
revolutions per day: 14.40850727
mean anomaly at epoch: 273.7779°
orbit number at epoch: 92503

The dashed part of the orbit path shows where the satellite is in the earth's shadow,  

DLR